PAB260 SBRF-GOBD

Flight info

Callsign PAB260
Flight time N/A
Altitude 21000
Route DOMDO UZ14 BUGAT UL206 KODOS/N0230F230 DCT 05N024W/N0235F250 08N022W DCT TURUP UA302 PIVSA PIVSA1D
Aircraft CONI/M-SDFY/C

Departure

Time 2026-05-01 13:24
Airport Recife/Guararapes - Gilberto Freyre International Airport (SBRF)

Arrival

Time N/A
Airport Blaise Diagne International Airport (GOBD)
Time Latitude Longitude Altitude Speed Heading
2026-05-01 13:11 -8.12944 -34.91986 43 ft 0 kts 73°
2026-05-01 13:17 -8.12951 -34.92005 43 ft 3 kts 66°
2026-05-01 13:17 -8.12961 -34.92024 43 ft 3 kts 58°
2026-05-01 13:18 -8.12988 -34.92053 43 ft 3 kts 28°
2026-05-01 13:18 -8.13004 -34.92057 43 ft 2 kts 346°
2026-05-01 13:18 -8.13011 -34.92055 43 ft 0 kts 342°
2026-05-01 13:19 -8.12968 -34.92069 43 ft 14 kts 342°
2026-05-01 13:19 -8.12876 -34.92098 43 ft 12 kts 342°
2026-05-01 13:19 -8.12703 -34.92154 43 ft 14 kts 342°
2026-05-01 13:20 -8.12608 -34.92184 43 ft 15 kts 341°
2026-05-01 13:20 -8.12506 -34.92219 43 ft 16 kts 341°
2026-05-01 13:20 -8.12393 -34.92256 43 ft 18 kts 342°
2026-05-01 13:21 -8.12137 -34.92341 43 ft 21 kts 341°
2026-05-01 13:21 -8.11997 -34.92389 43 ft 20 kts 341°
2026-05-01 13:21 -8.11860 -34.92434 43 ft 21 kts 341°
2026-05-01 13:21 -8.11736 -34.92474 43 ft 17 kts 344°
2026-05-01 13:22 -8.11651 -34.92502 43 ft 9 kts 338°
2026-05-01 13:22 -8.11641 -34.92505 43 ft 0 kts 338°
2026-05-01 13:22 -8.11608 -34.92523 43 ft 18 kts 324°
2026-05-01 13:22 -8.11501 -34.92621 43 ft 24 kts 316°
2026-05-01 13:23 -8.11479 -34.92687 43 ft 7 kts 221°
2026-05-01 13:23 -8.11583 -34.92669 43 ft 37 kts 166°
2026-05-01 13:23 -8.12025 -34.92544 43 ft 91 kts 156°
2026-05-01 13:23 -8.12710 -34.92293 94 ft 117 kts 164°
2026-05-01 13:24 -8.13519 -34.92020 272 ft 129 kts 164°
2026-05-01 13:24 -8.14391 -34.91731 559 ft 129 kts 164°
2026-05-01 13:24 -8.14664 -34.91640 681 ft 126 kts 163°